Concord, NH

11:58 PM EDT on July 23, 2016 (GMT -0400)
Concord Municipal

Weather History for KCON - June, 2013

Change the Weather History Date:

Thursday, June 20, 2013

  Actual Average Record
Temperature  
Mean Temperature 61 °F 66 °F  
Max Temperature 79 °F 79 °F 98 °F (1953)
Min Temperature 43 °F 54 °F 37 °F (1926)
Degree Days  
Heating Degree Days 4 2  
Month to date heating degree days 72 71  
Since 1 June heating degree days 72 71  
Since 1 July heating degree days 6845 7221  
Cooling Degree Days 0 3  
Month to date cooling degree days 34 44  
Year to date cooling degree days 55 62  
Since 1 June cooling degree days 34 44  
Growing Degree Days 11 (Base 50)    
Moisture  
Dew Point 46 °F    
Average Humidity 64    
Maximum Humidity 100    
Minimum Humidity 27    
Precipitation  
Precipitation 0.00 in 0.12 in 1.61 in (1945)
Month to date precipitation 4.88 2.58  
Year to date precipitation 17.64 18.24  
Snow  
Snow 0.00 in 0.00 in 0.00 in (2002)
Month to date snowfall 0.0 0.0  
Since 1 June snowfall 0.0 0.0  
Since 1 July snowfall 83.4 61.4  
Snow Depth 0.00 in    
Sea Level Pressure  
Sea Level Pressure 30.22 in    
Wind  
Wind Speed 2 mph (SW)    
Max Wind Speed 13 mph    
Max Gust Speed 16 mph    
Visibility 10 miles    
Events      
T = Trace of Precipitation, MM = Missing Value Source: NWS Daily Summary

Daily Weather History Graph

Daily Weather History Graph

Search for Another Location

Airport or City:

Trip Planner

Search our weather history database for the weather conditions in past years. The results will help you decide how hot, cold, wet, or windy it might be!

Date:

Astronomy

Jun. 20, 2013 Rise Set
Actual Time 5:06 AM EDT 8:29 PM EDT
Civil Twilight 4:30 AM EDT 9:04 PM EDT
Nautical Twilight 3:44 AM EDT 9:51 PM EDT
Astronomical Twilight 2:46 AM EDT 10:49 PM EDT
Moon 5:25 PM EDT (6/20) 2:34 AM EDT (6/20)
Length of Visible Light 16h 34m
Length of Day
15h 23m
Waxing Gibbous, 89% of the Moon is Illuminated
Jun 20
Waxing Gibbous
Jun 23
Full
Jun 30
Last Quarter
Jul 8
New
Jul 15
First Quarter

Hourly Weather History & Observations

Time (EDT) Temp. Dew Point Humidity Pressure Visibility Wind Dir Wind Speed Gust Speed Precip Events Conditions
12:51 AM 46.9 °F 46.0 °F 97% 30.17 in 10.0 mi Calm Calm - N/A   Clear
1:51 AM 48.0 °F 46.9 °F 96% 30.18 in 10.0 mi Calm Calm - N/A   Clear
2:51 AM 45.0 °F 44.1 °F 97% 30.20 in 10.0 mi Calm Calm - N/A   Clear
3:51 AM 45.0 °F 44.1 °F 97% 30.21 in 10.0 mi Calm Calm - N/A   Clear
4:51 AM 44.1 °F 43.0 °F 96% 30.23 in 10.0 mi Calm Calm - N/A   Clear
5:51 AM 45.0 °F 44.1 °F 97% 30.25 in 10.0 mi Calm Calm - N/A   Clear
6:51 AM 51.1 °F 46.9 °F 86% 30.25 in 10.0 mi Calm Calm - N/A   Clear
7:51 AM 55.0 °F 46.9 °F 74% 30.27 in 10.0 mi NW 4.6 mph - N/A   Clear
8:51 AM 61.0 °F 48.0 °F 62% 30.28 in 10.0 mi Variable 3.5 mph - N/A   Clear
9:51 AM 66.9 °F 46.9 °F 49% 30.26 in 10.0 mi Calm Calm - N/A   Clear
10:51 AM 69.1 °F 44.1 °F 40% 30.26 in 10.0 mi Calm Calm - N/A   Clear
11:51 AM 72.0 °F 45.0 °F 38% 30.25 in 10.0 mi SSW 3.5 mph - N/A   Clear
12:51 PM 73.0 °F 45.0 °F 37% 30.25 in 10.0 mi Calm Calm - N/A   Clear
1:51 PM 75.0 °F 46.0 °F 36% 30.22 in 10.0 mi Variable 4.6 mph - N/A   Partly Cloudy
2:51 PM 77.0 °F 46.0 °F 33% 30.22 in 10.0 mi West 6.9 mph 16.1 mph N/A   Partly Cloudy
3:51 PM 78.1 °F 46.0 °F 32% 30.20 in 10.0 mi SSW 6.9 mph - N/A   Partly Cloudy
4:51 PM 79.0 °F 41.0 °F 26% 30.19 in 10.0 mi West 9.2 mph - N/A   Clear
5:51 PM 79.0 °F 43.0 °F 28% 30.19 in 10.0 mi SW 5.8 mph - N/A   Clear
6:51 PM 75.9 °F 46.0 °F 35% 30.19 in 10.0 mi South 5.8 mph - N/A   Partly Cloudy
7:51 PM 73.0 °F 48.9 °F 42% 30.19 in 10.0 mi SSW 4.6 mph - N/A   Partly Cloudy
8:51 PM 68.0 °F 48.9 °F 50% 30.20 in 10.0 mi WSW 3.5 mph - N/A   Clear
9:51 PM 59.0 °F 50.0 °F 72% 30.22 in 10.0 mi Calm Calm - N/A   Clear
10:51 PM 55.0 °F 53.1 °F 93% 30.22 in 10.0 mi Calm Calm - N/A   Clear
11:51 PM 54.0 °F 51.1 °F 90% 30.23 in 10.0 mi Calm Calm - N/A   Clear